Location: Branche des Alpilles
(43.6087°N, 4.6976°E)
Time: 04:07:17
(UTC+00:00)

USA 215 - Pass Details

Date: 30 November 2020
Orbit: 1098 x 1110 km, 123.0° (Epoch: 22 January)

Event Time Altitude Azimuth Distance (km) Brightness Sun altitude
Exits shadow 19:31:11 50° 318° (NW) 1,387 3.9 -36.5°
Drops below altitude 10° 19:37:01 10° 259° (WSW) 2,971 6.2 -37.6°
Sets 19:39:34 0° 254° (WSW) 3,928 7.0 -38.0°
